Back to catalog

DELTA 1 DEB

AliveLEO
NORAD 2707·DEBRIS·🇺🇸 United States

Launched Jan 26, 1967 from Vandenberg Space Force Base

Loading…

Next Passes (next 24 hours)

TLE

FreshSource: Space-Track

Epoch: Sep 13, 2026, 17:27 UTC

1 02707U 67006D   26256.72744337 -.00000035  00000-0  60848-4 0  9992
2 02707 101.9058 231.8316 0148779 188.8117 348.4913 12.79411111783677

Track DELTA 1 DEB in real time with AllMySat

Download on the App Store